ONEWEB-0700

operational
NORAD ID: 61606 Int'l Des: 2024-188 Owner: ONEWEBE Country: UK Constellation: oneweb
LEOCIRCULARPOLARONEWEB_TYPE

Über ONEWEB-0700

Beschreibung wird geladen...

Live-Position

3D-Globus wird geladen...

Nächste Überflüge

Höhenverlauf

Altitude vs Time

uPlot chart will show altitude changes over time

Zweizeiliger Elementsatz

1 61606U 24188N 25251.61072089 .00000330 00000-0 90915-3 0 9993
2 61606 87.8738 92.2941 0001708 108.3092 251.8222 13.10375954 46424
Epoch: 8. Sept. 2025 • Age: 7 hours

Aktueller Status

Höhe 1227.8 km
Geschwindigkeit 7.24 km/s
Subsatellitenpunkt -12.94°S, 134.71°E
Startdatum 20. Okt. 2024
Alter 0.8 years
Typ internet

Technische Details

Klassifizierung Payload
Masse 148.00 kg
Trockenmasse 140.00 kg
Gesamtmasse 148.00 kg
Länge 1.30 m
Durchmesser 1.00 m
Spannweite 5.00 m
Form Trapezoid+2 pan
Hersteller ONEWUS
Bus-Typ ARROW
Phasenstatus In Orbit
Besitzer/Staat ONEWEBE/UK

Große Konstellationen

Loading constellations...